JBU1406 MDSD-KMCO

Flight info

Callsign JBU1406
Flight time 2h 21m
Altitude 36000
Route MALVN2L MALVN Y396 RUMFO Y441 ZQA BR65V ZFP BR1L JOLTS DCT CCLUB MUNGI1
Aircraft A320/M-SDE3FGHIRWY/LB1

Departure

Time 2026-04-22 04:13
Airport Las Américas International Airport (MDSD)

Arrival

Time 2026-04-22 06:34
Airport Orlando International Airport (KMCO)
Time Latitude Longitude Altitude Speed Heading
2026-04-22 03:35 18.42748 -69.67357 66 ft 0 kts 157°
2026-04-22 04:02 18.42748 -69.67344 66 ft 4 kts 72°
2026-04-22 04:02 18.42808 -69.67337 64 ft 12 kts 359°
2026-04-22 04:03 18.42897 -69.67342 57 ft 14 kts 346°
2026-04-22 04:03 18.42962 -69.67308 63 ft 13 kts 78°
2026-04-22 04:03 18.42956 -69.67208 60 ft 15 kts 96°
2026-04-22 04:03 18.42952 -69.67167 61 ft 1 kts 96°
2026-04-22 04:04 18.42952 -69.67163 65 ft 0 kts 96°
2026-04-22 04:05 18.42949 -69.67135 63 ft 8 kts 95°
2026-04-22 04:05 18.42923 -69.67081 66 ft 11 kts 142°
2026-04-22 04:06 18.42826 -69.67040 59 ft 19 kts 161°
2026-04-22 04:06 18.42687 -69.66988 60 ft 22 kts 160°
2026-04-22 04:06 18.42536 -69.66930 65 ft 24 kts 160°
2026-04-22 04:06 18.42375 -69.66871 64 ft 25 kts 161°
2026-04-22 04:07 18.42206 -69.66808 70 ft 26 kts 160°
2026-04-22 04:07 18.42030 -69.66743 71 ft 27 kts 161°
2026-04-22 04:07 18.41846 -69.66676 72 ft 28 kts 161°
2026-04-22 04:07 18.41678 -69.66615 74 ft 19 kts 161°
2026-04-22 04:08 18.41574 -69.66558 67 ft 16 kts 125°
2026-04-22 04:08 18.41552 -69.66512 75 ft 0 kts 112°
2026-04-22 04:10 18.41551 -69.66511 75 ft 1 kts 112°
2026-04-22 04:11 18.41539 -69.66480 75 ft 6 kts 110°
2026-04-22 04:11 18.41546 -69.66418 70 ft 11 kts 59°
2026-04-22 04:11 18.41622 -69.66403 66 ft 13 kts 342°
2026-04-22 04:11 18.41683 -69.66425 68 ft 15 kts 341°
2026-04-22 04:12 18.42065 -69.66561 66 ft 86 kts 341°
2026-04-22 04:12 18.42520 -69.66728 64 ft 122 kts 341°
2026-04-22 04:12 18.43467 -69.67078 65 ft 166 kts 340°
2026-04-22 04:12 18.44566 -69.67435 619 ft 159 kts 345°
2026-04-22 04:13 18.45623 -69.67770 1172 ft 159 kts 342°
2026-04-22 04:13 18.46689 -69.68163 1544 ft 170 kts 341°
2026-04-22 04:13 18.47871 -69.68622 1765 ft 192 kts 341°
2026-04-22 04:13 18.49203 -69.69132 1992 ft 216 kts 341°
2026-04-22 04:14 18.50701 -69.69697 2297 ft 241 kts 341°
2026-04-22 04:14 18.52349 -69.70317 2812 ft 258 kts 341°
2026-04-22 04:14 18.54057 -69.70957 3604 ft 263 kts 342°
2026-04-22 04:14 18.55789 -69.71602 4476 ft 265 kts 342°
2026-04-22 04:15 18.57541 -69.72248 5371 ft 268 kts 342°
2026-04-22 04:15 18.59172 -69.73205 6200 ft 274 kts 316°
2026-04-22 04:15 18.60103 -69.74956 6967 ft 281 kts 283°
2026-04-22 04:15 18.60232 -69.77019 7708 ft 285 kts 271°
2026-04-22 04:16 18.60168 -69.79121 8478 ft 289 kts 268°
2026-04-22 04:16 18.59917 -69.83397 9996 ft 296 kts 267°
2026-04-22 04:16 18.59798 -69.85609 10387 ft 312 kts 268°
2026-04-22 04:17 18.59689 -69.87979 10523 ft 335 kts 268°
2026-04-22 04:17 18.59587 -69.90501 10771 ft 351 kts 269°
2026-04-22 04:17 18.59493 -69.93093 11309 ft 356 kts 269°
2026-04-22 04:17 18.59646 -69.95701 11905 ft 360 kts 282°
2026-04-22 04:18 18.60407 -69.98203 12529 ft 360 kts 296°
2026-04-22 04:18 18.61741 -70.00437 13123 ft 362 kts 310°
2026-04-22 04:18 18.63566 -70.02276 13692 ft 365 kts 323°
2026-04-22 04:18 18.65639 -70.03836 14226 ft 368 kts 324°
2026-04-22 04:19 18.67736 -70.05405 14759 ft 371 kts 324°
2026-04-22 04:19 18.69844 -70.06981 15293 ft 373 kts 324°
2026-04-22 04:19 18.71967 -70.08568 15847 ft 374 kts 323°
2026-04-22 04:19 18.74096 -70.10164 16378 ft 377 kts 323°
2026-04-22 04:20 18.76233 -70.11768 16922 ft 379 kts 323°
2026-04-22 04:20 18.78388 -70.13387 17437 ft 381 kts 323°
2026-04-22 04:20 18.80560 -70.15018 17971 ft 384 kts 323°
2026-04-22 04:20 18.82745 -70.16656 18481 ft 387 kts 323°
2026-04-22 04:21 18.84943 -70.18305 18945 ft 389 kts 322°
2026-04-22 04:21 18.87157 -70.19971 19428 ft 391 kts 322°
2026-04-22 04:21 18.89382 -70.21644 19952 ft 393 kts 322°
2026-04-22 04:21 18.91615 -70.23322 20469 ft 395 kts 321°
2026-04-22 04:22 18.93859 -70.25008 20967 ft 397 kts 321°
2026-04-22 04:22 18.96114 -70.26704 21431 ft 399 kts 321°
2026-04-22 04:22 18.98376 -70.28406 21890 ft 401 kts 321°
2026-04-22 04:22 19.00652 -70.30121 22314 ft 403 kts 321°
2026-04-22 04:23 19.02938 -70.31843 22741 ft 405 kts 320°
2026-04-22 04:23 19.05238 -70.33576 23161 ft 407 kts 320°
2026-04-22 04:23 19.07552 -70.35321 23574 ft 409 kts 320°
2026-04-22 04:23 19.09877 -70.37071 23930 ft 411 kts 320°
2026-04-22 04:24 19.12209 -70.38826 24259 ft 412 kts 320°
2026-04-22 04:24 19.14549 -70.40591 24599 ft 414 kts 320°
2026-04-22 04:24 19.16898 -70.42364 24938 ft 415 kts 320°
2026-04-22 04:24 19.19253 -70.44144 25271 ft 416 kts 320°
2026-04-22 04:25 19.21609 -70.45927 25597 ft 418 kts 320°
2026-04-22 04:25 19.23981 -70.47719 25925 ft 419 kts 320°
2026-04-22 04:25 19.26357 -70.49516 26244 ft 420 kts 320°
2026-04-22 04:25 19.28738 -70.51317 26558 ft 422 kts 320°
2026-04-22 04:26 19.31131 -70.53124 26865 ft 423 kts 320°
2026-04-22 04:26 19.33533 -70.54936 27188 ft 425 kts 320°
2026-04-22 04:26 19.35941 -70.56754 27525 ft 425 kts 319°
2026-04-22 04:26 19.38352 -70.58576 27850 ft 426 kts 319°
2026-04-22 04:27 19.40764 -70.60401 28176 ft 427 kts 319°
2026-04-22 04:27 19.43176 -70.62244 28518 ft 428 kts 319°
2026-04-22 04:27 19.45577 -70.64106 28888 ft 427 kts 318°
2026-04-22 04:27 19.47965 -70.65967 29357 ft 425 kts 318°
2026-04-22 04:28 19.50338 -70.67818 29834 ft 423 kts 318°
2026-04-22 04:28 19.52698 -70.69656 30292 ft 420 kts 318°
2026-04-22 04:28 19.55051 -70.71487 30687 ft 419 kts 318°
2026-04-22 04:28 19.57398 -70.73313 31055 ft 418 kts 318°
2026-04-22 04:29 19.59739 -70.75137 31414 ft 418 kts 318°
2026-04-22 04:29 19.62081 -70.76958 31809 ft 417 kts 318°
2026-04-22 04:29 19.64414 -70.78773 32213 ft 416 kts 317°
2026-04-22 04:29 19.66774 -70.80609 32598 ft 415 kts 318°
2026-04-22 04:30 19.69103 -70.82422 32940 ft 415 kts 317°
2026-04-22 04:30 19.71424 -70.84231 33341 ft 414 kts 317°
2026-04-22 04:30 19.73741 -70.86036 33745 ft 412 kts 317°
2026-04-22 04:30 19.76048 -70.87833 34161 ft 411 kts 317°
2026-04-22 04:31 19.78349 -70.89623 34528 ft 409 kts 317°
2026-04-22 04:31 19.80638 -70.91407 34844 ft 408 kts 316°
2026-04-22 04:31 19.82891 -70.93167 35129 ft 408 kts 316°
2026-04-22 04:31 19.85174 -70.94953 35397 ft 408 kts 316°
2026-04-22 04:32 19.87457 -70.96737 35659 ft 407 kts 316°
2026-04-22 04:32 19.89740 -70.98520 35907 ft 407 kts 316°
2026-04-22 04:32 19.92027 -71.00306 36036 ft 408 kts 316°
2026-04-22 04:33 19.96657 -71.03923 36080 ft 416 kts 316°
2026-04-22 04:33 20.01328 -71.07584 36078 ft 418 kts 316°
2026-04-22 04:34 20.06001 -71.11252 36077 ft 418 kts 316°
2026-04-22 04:34 20.10677 -71.14921 36090 ft 417 kts 316°
2026-04-22 04:35 20.15369 -71.18592 36081 ft 415 kts 316°
2026-04-22 04:35 20.20022 -71.22237 36084 ft 415 kts 316°
2026-04-22 04:36 20.24678 -71.25884 36089 ft 415 kts 316°
2026-04-22 04:36 20.29332 -71.29535 36092 ft 416 kts 316°
2026-04-22 04:37 20.33982 -71.33197 36090 ft 416 kts 316°
2026-04-22 04:37 20.38626 -71.36868 36095 ft 415 kts 316°
2026-04-22 04:38 20.42889 -71.40893 36095 ft 403 kts 302°
2026-04-22 04:38 20.46374 -71.45563 36093 ft 402 kts 302°
2026-04-22 04:39 20.49853 -71.50229 36090 ft 402 kts 302°
2026-04-22 04:39 20.53331 -71.54900 36090 ft 402 kts 302°
2026-04-22 04:40 20.56804 -71.59575 36087 ft 402 kts 302°
2026-04-22 04:40 20.60282 -71.64253 36090 ft 402 kts 302°
2026-04-22 04:41 20.63761 -71.68933 36090 ft 402 kts 302°
2026-04-22 04:41 20.67235 -71.73608 36090 ft 402 kts 302°
2026-04-22 04:42 20.70705 -71.78291 36091 ft 402 kts 302°
2026-04-22 04:42 20.74171 -71.82972 36091 ft 401 kts 302°
2026-04-22 04:43 20.77631 -71.87653 36091 ft 402 kts 302°
2026-04-22 04:43 20.81102 -71.92336 36100 ft 402 kts 302°
2026-04-22 04:44 20.84562 -71.97005 36091 ft 397 kts 302°
2026-04-22 04:44 20.87982 -72.01631 36091 ft 396 kts 302°
2026-04-22 04:45 20.91387 -72.06259 36091 ft 396 kts 302°
2026-04-22 04:45 20.94796 -72.10890 36091 ft 396 kts 302°
2026-04-22 04:46 20.98210 -72.15516 36095 ft 395 kts 302°
2026-04-22 04:46 21.01614 -72.20136 36091 ft 395 kts 302°
2026-04-22 04:47 21.05016 -72.24771 36085 ft 396 kts 302°
2026-04-22 04:47 21.08419 -72.29401 36091 ft 396 kts 302°
2026-04-22 04:48 21.11817 -72.34029 36098 ft 396 kts 302°
2026-04-22 04:48 21.15218 -72.38656 36096 ft 395 kts 302°
2026-04-22 04:49 21.18618 -72.43290 36098 ft 395 kts 302°
2026-04-22 04:49 21.22009 -72.47916 36118 ft 394 kts 302°
2026-04-22 04:50 21.25389 -72.52539 36107 ft 394 kts 302°
2026-04-22 04:50 21.28773 -72.57172 36103 ft 395 kts 302°
2026-04-22 04:51 21.32160 -72.61803 36104 ft 395 kts 302°
2026-04-22 04:51 21.34979 -72.65656 36102 ft 395 kts 302°
2026-04-22 04:52 21.38361 -72.70298 36106 ft 395 kts 302°
2026-04-22 04:52 21.41747 -72.74952 36110 ft 396 kts 302°
2026-04-22 04:53 21.45141 -72.79608 36114 ft 396 kts 302°
2026-04-22 04:53 21.48534 -72.84268 36115 ft 396 kts 302°
2026-04-22 04:54 21.51929 -72.88927 36114 ft 396 kts 302°
2026-04-22 04:54 21.55314 -72.93587 36113 ft 395 kts 302°
2026-04-22 04:55 21.58686 -72.98241 36123 ft 393 kts 302°
2026-04-22 04:55 21.62039 -73.02873 36125 ft 392 kts 302°
2026-04-22 04:56 21.65394 -73.07510 36122 ft 393 kts 302°
2026-04-22 04:56 21.68755 -73.12141 36120 ft 393 kts 302°
2026-04-22 04:57 21.72117 -73.16774 36131 ft 393 kts 302°
2026-04-22 04:57 21.75471 -73.21422 36129 ft 393 kts 302°
2026-04-22 04:58 21.78823 -73.26065 36126 ft 393 kts 302°
2026-04-22 04:58 21.82185 -73.30712 36121 ft 393 kts 302°
2026-04-22 04:59 21.85541 -73.35364 36120 ft 393 kts 302°
2026-04-22 04:59 21.88881 -73.40012 36125 ft 393 kts 302°
2026-04-22 05:00 21.92223 -73.44663 36122 ft 393 kts 302°
2026-04-22 05:00 21.95568 -73.49308 36144 ft 391 kts 302°
2026-04-22 05:01 21.98896 -73.53931 36142 ft 390 kts 302°
2026-04-22 05:01 22.02218 -73.58549 36143 ft 390 kts 302°
2026-04-22 05:02 22.05540 -73.63180 36139 ft 390 kts 302°
2026-04-22 05:02 22.08843 -73.67807 36135 ft 389 kts 302°
2026-04-22 05:03 22.12154 -73.72431 36136 ft 389 kts 302°
2026-04-22 05:03 22.15464 -73.77048 36139 ft 389 kts 302°
2026-04-22 05:04 22.18774 -73.81672 36135 ft 389 kts 302°
2026-04-22 05:04 22.22076 -73.86298 36135 ft 389 kts 302°
2026-04-22 05:05 22.25375 -73.90930 36137 ft 389 kts 302°
2026-04-22 05:05 22.28673 -73.95561 36136 ft 389 kts 302°
2026-04-22 05:06 22.31973 -74.00189 36163 ft 389 kts 302°
2026-04-22 05:06 22.35264 -74.04811 36160 ft 388 kts 302°
2026-04-22 05:07 22.38545 -74.09427 36151 ft 387 kts 302°
2026-04-22 05:07 22.41821 -74.14037 36146 ft 387 kts 302°
2026-04-22 05:08 22.45101 -74.18647 36149 ft 386 kts 302°
2026-04-22 05:08 22.48371 -74.23258 36148 ft 386 kts 302°
2026-04-22 05:09 22.51638 -74.27875 36148 ft 386 kts 302°
2026-04-22 05:09 22.54901 -74.32490 36147 ft 387 kts 302°
2026-04-22 05:10 22.58168 -74.37103 36143 ft 386 kts 302°
2026-04-22 05:10 22.61433 -74.41721 36146 ft 386 kts 302°
2026-04-22 05:11 22.64690 -74.46335 36146 ft 386 kts 302°
2026-04-22 05:11 22.67952 -74.50954 36173 ft 386 kts 302°
2026-04-22 05:12 22.71210 -74.55573 36162 ft 385 kts 302°
2026-04-22 05:12 22.74460 -74.60187 36159 ft 385 kts 302°
2026-04-22 05:13 22.77703 -74.64809 36159 ft 385 kts 302°
2026-04-22 05:13 22.80948 -74.69429 36156 ft 385 kts 302°
2026-04-22 05:14 22.84192 -74.74047 36153 ft 385 kts 302°
2026-04-22 05:14 22.87433 -74.78671 36155 ft 385 kts 302°
2026-04-22 05:15 22.90682 -74.83296 36156 ft 386 kts 302°
2026-04-22 05:15 22.93932 -74.87920 36157 ft 385 kts 302°
2026-04-22 05:16 22.97174 -74.92552 36160 ft 385 kts 302°
2026-04-22 05:16 23.00404 -74.97188 36159 ft 385 kts 301°
2026-04-22 05:17 23.03639 -75.01826 36177 ft 385 kts 302°
2026-04-22 05:17 23.06873 -75.06446 36163 ft 384 kts 302°
2026-04-22 05:18 23.12069 -75.13124 36155 ft 388 kts 306°
2026-04-22 05:18 23.15719 -75.17445 36153 ft 388 kts 306°
2026-04-22 05:19 23.19361 -75.21772 36162 ft 389 kts 306°
2026-04-22 05:19 23.23007 -75.26112 36162 ft 389 kts 306°
2026-04-22 05:20 23.26652 -75.30450 36161 ft 389 kts 306°
2026-04-22 05:20 23.30297 -75.34789 36161 ft 388 kts 306°
2026-04-22 05:21 23.33936 -75.39134 36169 ft 388 kts 306°
2026-04-22 05:21 23.37569 -75.43473 36160 ft 388 kts 306°
2026-04-22 05:22 23.41203 -75.47808 36178 ft 388 kts 306°
2026-04-22 05:22 23.44829 -75.52157 36180 ft 388 kts 306°
2026-04-22 05:23 23.48480 -75.56527 36180 ft 387 kts 307°
2026-04-22 05:23 23.52087 -75.60837 36174 ft 387 kts 307°
2026-04-22 05:24 23.55712 -75.65183 36178 ft 387 kts 306°
2026-04-22 05:24 23.59330 -75.69537 36180 ft 387 kts 306°
2026-04-22 05:25 23.62950 -75.73889 36180 ft 387 kts 306°
2026-04-22 05:25 23.66572 -75.78239 36173 ft 388 kts 307°
2026-04-22 05:26 23.70199 -75.82597 36177 ft 387 kts 306°
2026-04-22 05:26 23.73810 -75.86952 36210 ft 387 kts 307°
2026-04-22 05:27 23.77426 -75.91311 36194 ft 387 kts 307°
2026-04-22 05:27 23.81035 -75.95671 36198 ft 387 kts 307°
2026-04-22 05:28 23.84645 -76.00036 36194 ft 387 kts 307°
2026-04-22 05:28 23.88257 -76.04395 36188 ft 387 kts 307°
2026-04-22 05:29 23.91867 -76.08760 36187 ft 387 kts 307°
2026-04-22 05:29 23.95471 -76.13127 36185 ft 387 kts 307°
2026-04-22 05:30 23.99079 -76.17503 36180 ft 387 kts 307°
2026-04-22 05:30 24.02690 -76.21881 36187 ft 388 kts 307°
2026-04-22 05:31 24.05717 -76.25544 36189 ft 387 kts 307°
2026-04-22 05:31 24.09331 -76.29922 36191 ft 388 kts 307°
2026-04-22 05:32 24.12935 -76.34309 36193 ft 388 kts 307°
2026-04-22 05:32 24.16541 -76.38705 36196 ft 388 kts 307°
2026-04-22 05:33 24.20118 -76.43075 36196 ft 388 kts 307°
2026-04-22 05:33 24.23743 -76.47502 36196 ft 388 kts 307°
2026-04-22 05:34 24.27344 -76.51899 36194 ft 387 kts 307°
2026-04-22 05:34 24.30941 -76.56295 36193 ft 387 kts 307°
2026-04-22 05:35 24.34519 -76.60662 36192 ft 388 kts 307°
2026-04-22 05:35 24.38148 -76.65094 36193 ft 388 kts 307°
2026-04-22 05:36 24.41722 -76.69470 36210 ft 388 kts 307°
2026-04-22 05:36 24.45316 -76.73881 36220 ft 388 kts 307°
2026-04-22 05:37 24.48933 -76.78330 36210 ft 388 kts 307°
2026-04-22 05:37 24.52539 -76.82753 36206 ft 389 kts 307°
2026-04-22 05:38 24.56144 -76.87189 36202 ft 389 kts 307°
2026-04-22 05:38 24.59747 -76.91626 36203 ft 389 kts 307°
2026-04-22 05:39 24.63351 -76.96069 36207 ft 390 kts 307°
2026-04-22 05:39 24.66957 -77.00517 36200 ft 389 kts 307°
2026-04-22 05:40 24.70559 -77.04966 36204 ft 389 kts 307°
2026-04-22 05:40 24.74156 -77.09410 36207 ft 389 kts 307°
2026-04-22 05:41 24.77758 -77.13859 36228 ft 389 kts 307°
2026-04-22 05:41 24.81359 -77.18314 36210 ft 390 kts 307°
2026-04-22 05:42 24.84969 -77.22786 36218 ft 391 kts 307°
2026-04-22 05:42 24.88580 -77.27264 36221 ft 391 kts 307°
2026-04-22 05:43 24.92193 -77.31750 36236 ft 391 kts 307°
2026-04-22 05:43 24.95808 -77.36236 36249 ft 392 kts 307°
2026-04-22 05:44 24.99422 -77.40727 36253 ft 392 kts 307°
2026-04-22 05:44 25.03163 -77.45105 36255 ft 396 kts 315°
2026-04-22 05:45 25.07629 -77.48737 36260 ft 399 kts 318°
2026-04-22 05:45 25.12117 -77.52343 36284 ft 400 kts 318°
2026-04-22 05:46 25.16609 -77.55967 36270 ft 400 kts 318°
2026-04-22 05:46 25.21100 -77.59600 36249 ft 400 kts 318°
2026-04-22 05:47 25.25597 -77.63232 36241 ft 400 kts 318°
2026-04-22 05:47 25.30087 -77.66867 36230 ft 400 kts 318°
2026-04-22 05:48 25.34586 -77.70506 36226 ft 401 kts 318°
2026-04-22 05:48 25.39082 -77.74151 36228 ft 401 kts 318°
2026-04-22 05:49 25.43584 -77.77799 36228 ft 401 kts 318°
2026-04-22 05:49 25.48088 -77.81448 36249 ft 401 kts 318°
2026-04-22 05:50 25.52584 -77.85106 36247 ft 401 kts 318°
2026-04-22 05:50 25.57082 -77.88770 36239 ft 401 kts 318°
2026-04-22 05:51 25.61585 -77.92437 36236 ft 402 kts 318°
2026-04-22 05:51 25.66079 -77.96106 36225 ft 401 kts 318°
2026-04-22 05:52 25.70549 -77.99755 36231 ft 402 kts 318°
2026-04-22 05:52 25.75054 -78.03430 36231 ft 402 kts 318°
2026-04-22 05:53 25.79557 -78.07109 36257 ft 402 kts 318°
2026-04-22 05:53 25.84054 -78.10791 36249 ft 401 kts 318°
2026-04-22 05:54 25.88547 -78.14482 36247 ft 401 kts 318°
2026-04-22 05:54 25.93035 -78.18164 36244 ft 401 kts 318°
2026-04-22 05:55 25.97531 -78.21843 36241 ft 401 kts 319°
2026-04-22 05:55 26.02027 -78.25530 36238 ft 402 kts 318°
2026-04-22 05:56 26.06547 -78.29250 36247 ft 402 kts 318°
2026-04-22 05:56 26.11035 -78.32949 36270 ft 402 kts 318°
2026-04-22 05:57 26.15525 -78.36650 36264 ft 401 kts 318°
2026-04-22 05:57 26.20011 -78.40346 36258 ft 401 kts 318°
2026-04-22 05:58 26.24493 -78.44048 36253 ft 401 kts 318°
2026-04-22 05:58 26.28945 -78.47735 36261 ft 401 kts 318°
2026-04-22 05:59 26.33457 -78.51468 36270 ft 401 kts 318°
2026-04-22 05:59 26.37911 -78.55153 36277 ft 401 kts 318°
2026-04-22 06:00 26.42396 -78.58863 36312 ft 401 kts 319°
2026-04-22 06:00 26.46910 -78.62606 36310 ft 402 kts 318°
2026-04-22 06:01 26.51359 -78.66312 36308 ft 402 kts 318°
2026-04-22 06:01 26.55779 -78.70118 36295 ft 398 kts 312°
2026-04-22 06:02 26.59608 -78.74563 36296 ft 397 kts 310°
2026-04-22 06:02 26.63444 -78.79062 36257 ft 398 kts 310°
2026-04-22 06:03 26.67260 -78.83545 36258 ft 398 kts 310°
2026-04-22 06:03 26.71076 -78.88029 36264 ft 398 kts 310°
2026-04-22 06:04 26.74890 -78.92517 36286 ft 398 kts 310°
2026-04-22 06:04 26.78692 -78.97011 36274 ft 398 kts 309°
2026-04-22 06:05 26.82494 -79.01506 36268 ft 398 kts 310°
2026-04-22 06:05 26.86299 -79.06001 36254 ft 397 kts 310°
2026-04-22 06:06 26.90096 -79.10503 36251 ft 397 kts 310°
2026-04-22 06:06 26.93897 -79.15000 36255 ft 397 kts 310°
2026-04-22 06:07 26.97696 -79.19505 36265 ft 398 kts 309°
2026-04-22 06:07 27.01405 -79.24092 36261 ft 396 kts 307°
2026-04-22 06:08 27.04874 -79.28891 36258 ft 395 kts 305°
2026-04-22 06:08 27.08284 -79.33723 36292 ft 395 kts 305°
2026-04-22 06:09 27.11740 -79.38532 36276 ft 396 kts 306°
2026-04-22 06:09 27.14629 -79.42508 36272 ft 395 kts 306°
2026-04-22 06:10 27.18111 -79.47285 36263 ft 395 kts 306°
2026-04-22 06:10 27.21519 -79.52112 36264 ft 393 kts 300°
2026-04-22 06:11 27.24061 -79.57515 36265 ft 391 kts 295°
2026-04-22 06:11 27.26521 -79.62971 36265 ft 391 kts 295°
2026-04-22 06:12 27.28985 -79.68425 36181 ft 393 kts 295°
2026-04-22 06:12 27.30221 -79.71161 35937 ft 392 kts 295°
2026-04-22 06:12 27.31452 -79.73896 35686 ft 392 kts 295°
2026-04-22 06:13 27.32684 -79.76637 35444 ft 393 kts 295°
2026-04-22 06:13 27.33920 -79.79386 35204 ft 394 kts 295°
2026-04-22 06:13 27.35159 -79.82141 34966 ft 395 kts 295°
2026-04-22 06:13 27.36399 -79.84906 34725 ft 397 kts 295°
2026-04-22 06:14 27.37647 -79.87689 34155 ft 399 kts 295°
2026-04-22 06:14 27.38904 -79.90489 33310 ft 402 kts 295°
2026-04-22 06:14 27.40165 -79.93306 32501 ft 404 kts 295°
2026-04-22 06:14 27.41435 -79.96145 31646 ft 408 kts 295°
2026-04-22 06:15 27.42715 -79.99006 30870 ft 410 kts 295°
2026-04-22 06:15 27.43996 -80.01868 30281 ft 408 kts 295°
2026-04-22 06:15 27.45267 -80.04710 29692 ft 404 kts 295°
2026-04-22 06:15 27.46524 -80.07519 29129 ft 399 kts 295°
2026-04-22 06:16 27.47763 -80.10297 28584 ft 395 kts 295°
2026-04-22 06:16 27.48989 -80.13051 28043 ft 391 kts 295°
2026-04-22 06:16 27.50202 -80.15776 27503 ft 388 kts 295°
2026-04-22 06:16 27.51408 -80.18484 26962 ft 385 kts 295°
2026-04-22 06:17 27.52603 -80.21171 26432 ft 383 kts 295°
2026-04-22 06:17 27.53790 -80.23847 25903 ft 381 kts 295°
2026-04-22 06:17 27.54974 -80.26512 25376 ft 380 kts 295°
2026-04-22 06:17 27.56172 -80.29206 24843 ft 379 kts 295°
2026-04-22 06:18 27.57337 -80.31828 24333 ft 378 kts 295°
2026-04-22 06:18 27.58514 -80.34479 23811 ft 378 kts 295°
2026-04-22 06:18 27.59686 -80.37119 23257 ft 376 kts 296°
2026-04-22 06:18 27.60851 -80.39744 22777 ft 373 kts 296°
2026-04-22 06:19 27.62010 -80.42358 22305 ft 372 kts 296°
2026-04-22 06:19 27.63163 -80.44959 21835 ft 369 kts 296°
2026-04-22 06:19 27.64306 -80.47541 21375 ft 366 kts 296°
2026-04-22 06:19 27.65438 -80.50101 20932 ft 364 kts 296°
2026-04-22 06:20 27.66562 -80.52647 20466 ft 361 kts 296°
2026-04-22 06:20 27.67679 -80.55180 20003 ft 358 kts 296°
2026-04-22 06:20 27.68786 -80.57689 19537 ft 356 kts 296°
2026-04-22 06:20 27.69887 -80.60181 19072 ft 355 kts 296°
2026-04-22 06:21 27.70985 -80.62671 18582 ft 354 kts 296°
2026-04-22 06:21 27.72081 -80.65158 18050 ft 353 kts 296°
2026-04-22 06:21 27.73176 -80.67648 17309 ft 358 kts 296°
2026-04-22 06:21 27.74282 -80.70163 16742 ft 357 kts 296°
2026-04-22 06:22 27.75383 -80.72668 16231 ft 356 kts 296°
2026-04-22 06:22 27.76482 -80.75165 15714 ft 355 kts 296°
2026-04-22 06:22 27.77644 -80.77622 15182 ft 354 kts 303°
2026-04-22 06:22 27.79025 -80.79920 14641 ft 354 kts 304°
2026-04-22 06:23 27.80417 -80.82217 14112 ft 354 kts 304°
2026-04-22 06:23 27.81806 -80.84517 13527 ft 354 kts 304°
2026-04-22 06:23 27.83187 -80.86809 12979 ft 352 kts 305°
2026-04-22 06:23 27.84562 -80.89093 12453 ft 351 kts 304°
2026-04-22 06:24 27.87298 -80.93636 11390 ft 348 kts 304°
2026-04-22 06:24 27.88658 -80.95895 10850 ft 347 kts 304°
2026-04-22 06:24 27.90008 -80.98138 10492 ft 341 kts 305°
2026-04-22 06:25 27.91316 -81.00312 10376 ft 327 kts 305°
2026-04-22 06:25 27.92637 -81.02343 10251 ft 315 kts 313°
2026-04-22 06:25 27.94252 -81.03934 10136 ft 302 kts 327°
2026-04-22 06:25 27.96087 -81.05010 9904 ft 295 kts 340°
2026-04-22 06:26 27.97992 -81.05798 9719 ft 292 kts 341°
2026-04-22 06:26 27.99932 -81.06609 9245 ft 297 kts 341°
2026-04-22 06:26 28.01850 -81.07422 8981 ft 293 kts 341°
2026-04-22 06:26 28.03750 -81.08229 8636 ft 290 kts 341°
2026-04-22 06:27 28.05637 -81.09035 8276 ft 289 kts 341°
2026-04-22 06:27 28.07515 -81.09835 7938 ft 288 kts 341°
2026-04-22 06:27 28.09411 -81.10638 7312 ft 297 kts 342°
2026-04-22 06:27 28.11392 -81.11466 6543 ft 310 kts 343°
2026-04-22 06:28 28.13417 -81.12336 6101 ft 310 kts 339°
2026-04-22 06:28 28.15137 -81.13749 5942 ft 306 kts 314°
2026-04-22 06:28 28.16255 -81.15799 5620 ft 306 kts 298°
2026-04-22 06:28 28.17178 -81.17954 5326 ft 302 kts 297°
2026-04-22 06:29 28.18076 -81.20090 5036 ft 298 kts 297°
2026-04-22 06:29 28.18956 -81.22199 4754 ft 295 kts 297°
2026-04-22 06:29 28.19816 -81.24257 4479 ft 283 kts 297°
2026-04-22 06:29 28.20691 -81.26236 4202 ft 276 kts 306°
2026-04-22 06:30 28.22025 -81.27630 3942 ft 251 kts 339°
2026-04-22 06:30 28.23641 -81.28060 3618 ft 231 kts
2026-04-22 06:30 28.25210 -81.28072 3319 ft 221 kts
2026-04-22 06:30 28.26719 -81.28086 3027 ft 213 kts
2026-04-22 06:31 28.28166 -81.28100 2760 ft 204 kts
2026-04-22 06:31 28.29546 -81.28116 2529 ft 192 kts
2026-04-22 06:31 28.30870 -81.28130 2252 ft 189 kts
2026-04-22 06:31 28.32148 -81.28145 2000 ft 178 kts
2026-04-22 06:32 28.33356 -81.28161 1772 ft 169 kts
2026-04-22 06:32 28.34504 -81.28175 1548 ft 161 kts
2026-04-22 06:32 28.35587 -81.28188 1339 ft 151 kts
2026-04-22 06:32 28.36604 -81.28198 1162 ft 143 kts
2026-04-22 06:33 28.37591 -81.28202 960 ft 140 kts
2026-04-22 06:33 28.38563 -81.28191 754 ft 140 kts
2026-04-22 06:33 28.39535 -81.28211 578 ft 139 kts
2026-04-22 06:33 28.40503 -81.28213 391 ft 139 kts 359°
2026-04-22 06:34 28.41466 -81.28227 218 ft 138 kts
2026-04-22 06:34 28.42418 -81.28241 109 ft 129 kts 360°
2026-04-22 06:34 28.43157 -81.28246 101 ft 81 kts 359°
2026-04-22 06:34 28.43495 -81.28286 101 ft 22 kts 320°
2026-04-22 06:35 28.43538 -81.28338 102 ft 4 kts 310°
2026-04-22 06:35 28.43529 -81.28365 102 ft 10 kts 213°
2026-04-22 06:35 28.43404 -81.28372 103 ft 22 kts 179°
2026-04-22 06:35 28.43240 -81.28370 98 ft 25 kts 180°
2026-04-22 06:36 28.43062 -81.28364 101 ft 26 kts 179°
2026-04-22 06:36 28.42903 -81.28366 101 ft 21 kts 181°
2026-04-22 06:36 28.42752 -81.28368 105 ft 22 kts 180°
2026-04-22 06:36 28.42612 -81.28363 108 ft 10 kts 179°
2026-04-22 06:37 28.42533 -81.28372 106 ft 13 kts 206°
2026-04-22 06:37 28.42486 -81.28475 105 ft 17 kts 251°
2026-04-22 06:37 28.42444 -81.28611 106 ft 20 kts 250°
2026-04-22 06:37 28.42394 -81.28771 107 ft 22 kts 250°
2026-04-22 06:38 28.42344 -81.28933 108 ft 16 kts 251°
2026-04-22 06:38 28.42306 -81.29061 108 ft 19 kts 251°
2026-04-22 06:38 28.42287 -81.29194 108 ft 15 kts 268°
2026-04-22 06:38 28.42354 -81.29265 104 ft 12 kts 320°
2026-04-22 06:39 28.42367 -81.29373 103 ft 16 kts 269°
2026-04-22 06:39 28.42367 -81.29516 99 ft 21 kts 271°
2026-04-22 06:39 28.42364 -81.29685 101 ft 22 kts 268°
2026-04-22 06:39 28.42362 -81.29850 103 ft 20 kts 270°
2026-04-22 06:40 28.42362 -81.30018 104 ft 17 kts 270°
2026-04-22 06:40 28.42380 -81.30123 103 ft 13 kts 322°
2026-04-22 06:40 28.42457 -81.30104 102 ft 6 kts 27°
2026-04-22 06:40 28.42498 -81.30073 102 ft 7 kts 31°
2026-04-22 06:41 28.42521 -81.30059 102 ft 0 kts 29°